Time,TemperatureF,DewpointF,PressureIn,WindDirection,WindDirectionDegrees,WindSpeedMPH,WindSpeedGustMPH,Humidity,HourlyPrecipIn,Conditions,Clouds,dailyrainin,SoftwareType,DateUTC
2013-05-11 00:10:00,64.3,60.0,29.93,WSW,248,0.0,0.0,87,0.00,,,0.00,weatherlink.com 1.10,2013-05-11 04:10:00,
2013-05-11 00:25:00,64.4,61.0,29.92,WSW,248,0.0,0.0,87,0.00,,,0.00,weatherlink.com 1.10,2013-05-11 04:25:00,
2013-05-11 00:40:00,65.0,60.0,29.92,WSW,248,0.0,1.0,84,0.00,,,0.00,weatherlink.com 1.10,2013-05-11 04:40:00,
2013-05-11 00:55:00,65.5,61.0,29.92,WSW,248,0.0,0.0,84,0.00,,,0.00,weatherlink.com 1.10,2013-05-11 04:55:00,
2013-05-11 01:10:00,65.3,60.0,29.92,WSW,248,0.0,1.0,84,0.00,,,0.00,weatherlink.com 1.10,2013-05-11 05:10:00,
2013-05-11 01:25:00,65.8,60.0,29.92,WSW,248,0.0,3.0,82,0.00,,,0.00,weatherlink.com 1.10,2013-05-11 05:25:00,
2013-05-11 01:40:00,65.9,60.0,29.91,WSW,248,0.0,1.0,82,0.00,,,0.00,weatherlink.com 1.10,2013-05-11 05:40:00,
2013-05-11 01:55:00,65.6,61.0,29.91,WSW,248,1.0,1.0,84,0.00,,,0.00,weatherlink.com 1.10,2013-05-11 05:55:00,
2013-05-11 02:10:00,64.7,61.0,29.90,WSW,248,0.0,1.0,86,0.00,,,0.00,weatherlink.com 1.10,2013-05-11 06:10:00,
2013-05-11 02:25:00,64.5,60.0,29.89,WSW,248,0.0,1.0,86,0.00,,,0.00,weatherlink.com 1.10,2013-05-11 06:25:00,
2013-05-11 02:40:00,64.5,60.0,29.89,WSW,248,0.0,0.0,86,0.00,,,0.00,weatherlink.com 1.10,2013-05-11 06:40:00,
2013-05-11 02:55:00,64.0,60.0,29.88,WSW,248,0.0,0.0,87,0.00,,,0.00,weatherlink.com 1.10,2013-05-11 06:55:00,
2013-05-11 03:10:00,64.1,60.0,29.87,WSW,248,0.0,0.0,87,0.00,,,0.00,weatherlink.com 1.10,2013-05-11 07:10:00,
2013-05-11 03:25:00,64.3,60.0,29.87,WSW,248,3.0,3.0,87,0.00,,,0.00,weatherlink.com 1.10,2013-05-11 07:25:00,
2013-05-11 03:40:00,64.9,61.0,29.87,WSW,248,1.0,2.0,86,0.00,,,0.00,weatherlink.com 1.10,2013-05-11 07:40:00,
2013-05-11 03:56:00,64.4,60.0,29.87,SSW,212,0.0,2.0,86,0.00,,,0.00,weatherlink.com 1.10,2013-05-11 07:56:00,
2013-05-11 04:11:00,63.8,60.0,29.88,SSW,212,0.0,2.0,87,0.00,,,0.00,weatherlink.com 1.10,2013-05-11 08:11:00,
2013-05-11 04:26:00,63.1,60.0,29.87,SSW,212,0.0,0.0,88,0.00,,,0.00,weatherlink.com 1.10,2013-05-11 08:26:00,
2013-05-11 04:41:00,61.8,58.0,29.87,SSW,212,0.0,0.0,88,0.00,,,0.00,weatherlink.com 1.10,2013-05-11 08:41:00,
2013-05-11 04:56:00,60.6,57.0,29.87,SSW,212,0.0,0.0,89,0.00,,,0.00,weatherlink.com 1.10,2013-05-11 08:56:00,
2013-05-11 05:11:00,60.0,57.0,29.87,SSW,212,0.0,0.0,89,0.00,,,0.00,weatherlink.com 1.10,2013-05-11 09:11:00,
2013-05-11 05:26:00,59.8,57.0,29.86,SW,221,0.0,2.0,89,0.00,,,0.00,weatherlink.com 1.10,2013-05-11 09:26:00,
2013-05-11 05:41:00,60.7,58.0,29.86,SW,221,1.0,3.0,89,0.00,,,0.00,weatherlink.com 1.10,2013-05-11 09:41:00,
2013-05-11 05:56:00,61.2,58.0,29.85,SW,222,1.0,4.0,88,0.00,,,0.00,weatherlink.com 1.10,2013-05-11 09:56:00,
2013-05-11 06:11:00,61.2,57.0,29.86,West,260,0.0,1.0,87,0.00,,,0.00,weatherlink.com 1.10,2013-05-11 10:11:00,
2013-05-11 06:26:00,60.7,57.0,29.86,SW,229,3.0,3.0,88,0.00,,,0.00,weatherlink.com 1.10,2013-05-11 10:26:00,
2013-05-11 06:41:00,60.5,57.0,29.86,SW,219,1.0,4.0,88,0.00,,,0.00,weatherlink.com 1.10,2013-05-11 10:41:00,
2013-05-11 06:56:00,60.9,57.0,29.87,SW,218,1.0,4.0,88,0.00,,,0.00,weatherlink.com 1.10,2013-05-11 10:56:00,
2013-05-11 07:11:00,61.3,57.0,29.87,SW,226,1.0,5.0,87,0.00,,,0.00,weatherlink.com 1.10,2013-05-11 11:11:00,
2013-05-11 07:26:00,62.1,58.0,29.86,WSW,249,3.0,6.0,86,0.00,,,0.00,weatherlink.com 1.10,2013-05-11 11:26:00,
2013-05-11 07:41:00,63.5,59.0,29.86,WSW,240,4.0,5.0,84,0.00,,,0.00,weatherlink.com 1.10,2013-05-11 11:41:00,
2013-05-11 07:56:00,64.8,59.0,29.86,SW,214,3.0,7.0,81,0.00,,,0.00,weatherlink.com 1.10,2013-05-11 11:56:00,
2013-05-11 08:11:00,65.9,60.0,29.87,SSW,207,5.0,7.0,80,0.00,,,0.00,weatherlink.com 1.10,2013-05-11 12:11:00,
2013-05-11 08:26:00,66.4,60.0,29.87,West,267,5.0,6.0,79,0.00,,,0.00,weatherlink.com 1.10,2013-05-11 12:26:00,
2013-05-11 08:41:00,66.9,60.0,29.87,West,269,3.0,7.0,78,0.00,,,0.00,weatherlink.com 1.10,2013-05-11 12:41:00,
2013-05-11 08:56:00,67.7,60.0,29.87,WSW,244,2.0,7.0,77,0.00,,,0.00,weatherlink.com 1.10,2013-05-11 12:56:00,
2013-05-11 09:11:00,68.6,60.0,29.87,West,263,7.0,10.0,74,0.00,,,0.00,weatherlink.com 1.10,2013-05-11 13:11:00,
2013-05-11 09:26:00,69.5,60.0,29.87,SW,225,2.0,9.0,71,0.00,,,0.00,weatherlink.com 1.10,2013-05-11 13:26:00,
2013-05-11 09:41:00,70.4,60.0,29.86,SSW,200,3.0,9.0,69,0.00,,,0.00,weatherlink.com 1.10,2013-05-11 13:41:00,
2013-05-11 09:56:00,70.8,60.0,29.86,SW,228,3.0,7.0,68,0.00,,,0.00,weatherlink.com 1.10,2013-05-11 13:56:00,
2013-05-11 10:11:00,71.8,60.0,29.86,WSW,243,7.0,12.0,66,0.00,,,0.00,weatherlink.com 1.10,2013-05-11 14:11:00,
2013-05-11 10:26:00,71.7,59.0,29.86,SW,227,7.0,9.0,65,0.00,,,0.00,weatherlink.com 1.10,2013-05-11 14:26:00,
2013-05-11 10:41:00,71.8,59.0,29.86,SSW,198,5.0,8.0,65,0.00,,,0.00,weatherlink.com 1.10,2013-05-11 14:41:00,
2013-05-11 10:56:00,73.0,60.0,29.86,South,179,1.0,8.0,65,0.00,,,0.00,weatherlink.com 1.10,2013-05-11 14:56:00,
2013-05-11 11:11:00,73.4,59.0,29.85,West,276,2.0,9.0,61,0.00,,,0.00,weatherlink.com 1.10,2013-05-11 15:11:00,
2013-05-11 11:26:00,73.6,60.0,29.86,SW,227,4.0,9.0,62,0.00,,,0.00,weatherlink.com 1.10,2013-05-11 15:26:00,
2013-05-11 11:42:00,73.5,61.0,29.85,WSW,252,2.0,6.0,64,0.00,,,0.00,weatherlink.com 1.10,2013-05-11 15:42:00,
2013-05-11 11:57:00,73.4,60.0,29.85,WSW,252,7.0,7.0,63,0.00,,,0.00,weatherlink.com 1.10,2013-05-11 15:57:00,
2013-05-11 12:12:00,73.8,61.0,29.85,WSW,242,4.0,7.0,65,0.00,,,0.00,weatherlink.com 1.10,2013-05-11 16:12:00,
2013-05-11 12:27:00,74.2,61.0,29.84,South,171,3.0,8.0,63,0.00,,,0.00,weatherlink.com 1.10,2013-05-11 16:27:00,
2013-05-11 12:42:00,75.0,61.0,29.84,SSE,153,4.0,11.0,61,0.00,,,0.00,weatherlink.com 1.10,2013-05-11 16:42:00,
2013-05-11 12:57:00,75.7,61.0,29.84,WSW,242,6.0,10.0,61,0.00,,,0.00,weatherlink.com 1.10,2013-05-11 16:57:00,
2013-05-11 13:12:00,75.7,63.0,29.84,WSW,248,3.0,9.0,64,0.00,,,0.00,weatherlink.com 1.10,2013-05-11 17:12:00,
2013-05-11 13:27:00,75.5,61.0,29.83,SSW,196,4.0,9.0,61,0.00,,,0.00,weatherlink.com 1.10,2013-05-11 17:27:00,
2013-05-11 13:42:00,75.5,62.0,29.83,South,171,1.0,8.0,63,0.00,,,0.00,weatherlink.com 1.10,2013-05-11 17:42:00,
2013-05-11 13:57:00,75.5,61.0,29.82,SW,232,4.0,9.0,62,0.00,,,0.00,weatherlink.com 1.10,2013-05-11 17:57:00,
2013-05-11 14:12:00,76.1,62.0,29.82,SW,232,4.0,10.0,61,0.00,,,0.00,weatherlink.com 1.10,2013-05-11 18:12:00,
2013-05-11 14:27:00,75.3,61.0,29.82,SW,214,2.0,13.0,61,0.00,,,0.00,weatherlink.com 1.10,2013-05-11 18:27:00,
2013-05-11 14:42:00,74.6,61.0,29.81,SSW,198,10.0,10.0,63,0.00,,,0.00,weatherlink.com 1.10,2013-05-11 18:42:00,
2013-05-11 14:57:00,74.4,61.0,29.81,WSW,248,6.0,11.0,63,0.00,,,0.00,weatherlink.com 1.10,2013-05-11 18:57:00,
2013-05-11 15:12:00,73.8,62.0,29.82,West,271,2.0,10.0,67,0.00,,,0.00,weatherlink.com 1.10,2013-05-11 19:12:00,
2013-05-11 15:27:00,70.2,64.0,29.81,NNW,332,3.0,6.0,81,0.00,,,0.00,weatherlink.com 1.10,2013-05-11 19:27:00,
2013-05-11 15:42:00,70.2,64.0,29.81,WSW,255,4.0,8.0,81,0.00,,,0.00,weatherlink.com 1.10,2013-05-11 19:42:00,
2013-05-11 15:57:00,72.4,63.0,29.79,SW,225,5.0,9.0,73,0.00,,,0.00,weatherlink.com 1.10,2013-05-11 19:57:00,
2013-05-11 16:12:00,73.7,63.0,29.79,SW,229,6.0,13.0,70,0.00,,,0.00,weatherlink.com 1.10,2013-05-11 20:12:00,
2013-05-11 16:27:00,73.8,63.0,29.79,SW,220,7.0,12.0,70,0.00,,,0.00,weatherlink.com 1.10,2013-05-11 20:27:00,
2013-05-11 16:42:00,74.3,64.0,29.78,SW,227,5.0,11.0,70,0.00,,,0.00,weatherlink.com 1.10,2013-05-11 20:42:00,
2013-05-11 16:57:00,75.4,64.0,29.79,South,182,8.0,14.0,68,0.00,,,0.00,weatherlink.com 1.10,2013-05-11 20:57:00,
2013-05-11 17:12:00,75.5,63.0,29.78,SW,219,8.0,13.0,66,0.00,,,0.00,weatherlink.com 1.10,2013-05-11 21:12:00,
2013-05-11 17:27:00,75.9,64.0,29.77,WSW,246,6.0,14.0,66,0.00,,,0.00,weatherlink.com 1.10,2013-05-11 21:27:00,
2013-05-11 17:42:00,75.9,63.0,29.76,South,173,6.0,13.0,64,0.00,,,0.00,weatherlink.com 1.10,2013-05-11 21:42:00,
2013-05-11 17:57:00,75.9,63.0,29.75,SW,234,3.0,10.0,64,0.00,,,0.00,weatherlink.com 1.10,2013-05-11 21:57:00,
2013-05-11 18:12:00,75.2,63.0,29.75,SSW,194,7.0,15.0,65,0.00,,,0.00,weatherlink.com 1.10,2013-05-11 22:12:00,
2013-05-11 18:27:00,74.1,62.0,29.76,WSW,248,5.0,12.0,67,0.00,,,0.00,weatherlink.com 1.10,2013-05-11 22:27:00,
2013-05-11 18:42:00,73.5,63.0,29.77,SW,221,8.0,13.0,69,0.00,,,0.00,weatherlink.com 1.10,2013-05-11 22:42:00,
2013-05-11 18:57:00,72.4,60.0,29.79,NNW,346,10.0,14.0,65,0.00,,,0.00,weatherlink.com 1.10,2013-05-11 22:57:00,
2013-05-11 19:12:00,64.1,59.0,29.81,SW,232,3.0,9.0,83,0.00,,,0.00,weatherlink.com 1.10,2013-05-11 23:12:00,
2013-05-11 19:27:00,62.6,59.0,29.81,West,279,5.0,7.0,87,0.00,,,0.00,weatherlink.com 1.10,2013-05-11 23:27:00,
2013-05-11 19:42:00,62.6,59.0,29.80,West,279,1.0,5.0,88,0.00,,,0.00,weatherlink.com 1.10,2013-05-11 23:42:00,
2013-05-11 19:57:00,62.3,59.0,29.80,South,188,1.0,4.0,88,0.00,,,0.00,weatherlink.com 1.10,2013-05-11 23:57:00,
2013-05-11 20:12:00,62.2,59.0,29.80,WSW,250,2.0,4.0,89,0.00,,,0.00,weatherlink.com 1.10,2013-05-12 00:12:00,
2013-05-11 20:27:00,62.0,59.0,29.80,SSW,197,1.0,3.0,89,0.00,,,0.00,weatherlink.com 1.10,2013-05-12 00:27:00,
2013-05-11 20:42:00,62.0,59.0,29.80,West,259,2.0,4.0,89,0.00,,,0.00,weatherlink.com 1.10,2013-05-12 00:42:00,
2013-05-11 20:57:00,61.9,59.0,29.80,SSW,213,0.0,2.0,89,0.00,,,0.00,weatherlink.com 1.10,2013-05-12 00:57:00,
2013-05-11 21:12:00,61.8,59.0,29.81,ENE,66,0.0,4.0,90,0.00,,,0.00,weatherlink.com 1.10,2013-05-12 01:12:00,
2013-05-11 21:27:00,61.6,59.0,29.81,NE,53,0.0,3.0,90,0.00,,,0.00,weatherlink.com 1.10,2013-05-12 01:27:00,
2013-05-11 21:42:00,61.4,59.0,29.81,NE,53,0.0,2.0,90,0.00,,,0.00,weatherlink.com 1.10,2013-05-12 01:42:00,
2013-05-11 21:57:00,61.2,58.0,29.81,NE,53,0.0,3.0,90,0.00,,,0.00,weatherlink.com 1.10,2013-05-12 01:57:00,
2013-05-11 22:12:00,60.9,58.0,29.82,NE,53,0.0,0.0,91,0.00,,,0.00,weatherlink.com 1.10,2013-05-12 02:12:00,
2013-05-11 22:27:00,60.8,58.0,29.82,NE,53,0.0,0.0,91,0.00,,,0.00,weatherlink.com 1.10,2013-05-12 02:27:00,
2013-05-11 22:42:00,60.8,59.0,29.82,NE,53,0.0,2.0,92,0.00,,,0.00,weatherlink.com 1.10,2013-05-12 02:42:00,
2013-05-11 22:57:00,60.7,58.0,29.82,NE,53,0.0,0.0,91,0.00,,,0.00,weatherlink.com 1.10,2013-05-12 02:57:00,
2013-05-11 23:12:00,60.8,59.0,29.83,WSW,246,2.0,4.0,92,0.00,,,0.00,weatherlink.com 1.10,2013-05-12 03:12:00,
2013-05-11 23:27:00,61.3,58.0,29.83,WSW,242,4.0,7.0,90,0.00,,,0.00,weatherlink.com 1.10,2013-05-12 03:27:00,
2013-05-11 23:42:00,61.6,58.0,29.82,WSW,243,2.0,7.0,89,0.00,,,0.00,weatherlink.com 1.10,2013-05-12 03:42:00,
2013-05-11 23:57:00,61.5,58.0,29.83,WSW,242,1.0,4.0,89,0.00,,,0.00,weatherlink.com 1.10,2013-05-12 03:57:00,